Location: C�mpuri de-Sus
(45.9500°N, 22.5500°E)
Time: 13:41:34
(UTC+00:00)

Cosmos 389 Rocket - Pass Details

Date: 24 October 2021
Orbit: 438 x 468 km, 81.1° (Epoch: 07 December)

Event Time Altitude Azimuth Distance (km) Brightness Sun altitude
Rises 15:57:37 0° 202° (SSW) 2,415 6.6 -5.8°
Reaches altitude 10° 15:59:42 10° 208° (SSW) 1,554 5.7 -6.1°
Maximum altitude 16:03:00 48° 284° (WNW) 588 3.5 -6.7°
Drops below altitude 10° 16:06:21 10° 0° (N) 1,580 5.1 -7.3°
Sets 16:08:29 0° 6° (N) 2,462 6.0 -7.6°
